• In Hungary
  • List of Countries
  • For 7 days
  • Water Temperature
  • Satellite Maps
  • Weather Map
  • News
  • Weather Widgets
  • user-avatar
    Login

    Hourly Weather Nyiregyhaza

    Today, 16 January, Tuesday

    Time Temperature Precipitation Wind Pressure Humidity
    00:00 -5°C° 0 mm 2 mps 756 mmHg 54%
    01:00 -3°C° 0 mm 1 mps 756 mmHg 57%
    02:00 -3°C° 0 mm 1 mps 755 mmHg 57%
    03:00 -5°C° 0 mm 2 mps 755 mmHg 58%
    04:00 -5°C° 0 mm 2 mps 754 mmHg 58%
    05:00 -6°C° 0 mm 3 mps 753 mmHg 59%
    06:00 -6°C° 0 mm 3 mps 752 mmHg 59%
    07:00 -6°C° 0 mm 3 mps 752 mmHg 60%
    08:00 -6°C° 0 mm 3 mps 751 mmHg 60%
    09:00 -5°C° 0 mm 4 mps 750 mmHg 60%
    10:00 -5°C° 0 mm 4 mps 749 mmHg 60%
    11:00 -4°C° 0.2 mm 4 mps 748 mmHg 65%
    12:00 -4°C° 0.2 mm 4 mps 747 mmHg 69%
    13:00 -4°C° 0.2 mm 4 mps 746 mmHg 73%
    14:00 -4°C° 0.2 mm 4 mps 745 mmHg 78%
    15:00 -4°C° 0.2 mm 4 mps 744 mmHg 82%
    16:00 -4°C° 0.2 mm 4 mps 744 mmHg 86%
    17:00 -3°C° 0.2 mm 4 mps 743 mmHg 89%
    18:00 -3°C° 0.2 mm 4 mps 742 mmHg 91%
    19:00 -3°C° 0.2 mm 4 mps 742 mmHg 94%
    20:00 -1°C° 0.3 mm 3 mps 741 mmHg 94%
    21:00 -1°C° 0.3 mm 3 mps 741 mmHg 95%
    22:00 0°C° 0.3 mm 3 mps 741 mmHg 95%
    23:00 0°C° 0.1 mm 3 mps 740 mmHg 96%

    Tomorrow, 17 January, Wednesday

    Time Temperature Precipitation Wind Pressure Humidity
    00:00 0°C° 0.1 mm 3 mps 740 mmHg 96%
    01:00 0°C° 0.1 mm 3 mps 740 mmHg 97%
    02:00 0°C° 0.4 mm 3 mps 740 mmHg 97%
    03:00 0°C° 0.4 mm 3 mps 739 mmHg 97%
    04:00 0°C° 0.4 mm 3 mps 739 mmHg 97%
    05:00 0°C° 0.2 mm 3 mps 739 mmHg 96%
    06:00 0°C° 0.2 mm 3 mps 738 mmHg 96%
    07:00 0°C° 0.2 mm 3 mps 738 mmHg 96%
    08:00 0°C° 0.2 mm 3 mps 738 mmHg 96%
    09:00 +2°C° 0.2 mm 2 mps 738 mmHg 95%
    10:00 +2°C° 0.2 mm 2 mps 737 mmHg 95%
    11:00 +2°C° 0 mm 2 mps 737 mmHg 94%
    12:00 +2°C° 0 mm 2 mps 737 mmHg 93%
    13:00 +4°C° 0 mm 1 mps 736 mmHg 93%
    14:00 +3°C° 0 mm 1 mps 737 mmHg 93%
    15:00 +3°C° 0 mm 1 mps 737 mmHg 93%
    16:00 +1°C° 0 mm 2 mps 737 mmHg 94%
    17:00 +1°C° 0 mm 2 mps 738 mmHg 91%
    18:00 0°C° 0 mm 3 mps 738 mmHg 88%
    19:00 -1°C° 0 mm 4 mps 739 mmHg 85%
    20:00 -1°C° 0 mm 4 mps 739 mmHg 82%
    21:00 -2°C° 0 mm 4 mps 740 mmHg 80%
    22:00 -2°C° 0 mm 4 mps 741 mmHg 77%
    23:00 -2°C° 0 mm 4 mps 742 mmHg 77%

    Day after tomorrow, 18 January, Thursday

    Time Temperature Precipitation Wind Pressure Humidity
    00:00 -3°C° 0 mm 4 mps 742 mmHg 77%
    01:00 -3°C° 0 mm 4 mps 743 mmHg 77%
    02:00 -4°C° 0 mm 4 mps 743 mmHg 77%
    03:00 -4°C° 0 mm 4 mps 744 mmHg 77%
    04:00 -4°C° 0 mm 4 mps 744 mmHg 78%
    05:00 -3°C° 0 mm 4 mps 744 mmHg 77%
    06:00 -4°C° 0 mm 5 mps 745 mmHg 77%
    07:00 -4°C° 0 mm 5 mps 745 mmHg 77%
    08:00 -2°C° 0 mm 5 mps 746 mmHg 73%
    09:00 -2°C° 0 mm 6 mps 746 mmHg 69%
    10:00 -1°C° 0 mm 7 mps 746 mmHg 64%
    11:00 +1°C° 0 mm 6 mps 746 mmHg 62%
    12:00 +1°C° 0 mm 5 mps 746 mmHg 61%
    13:00 +1°C° 0 mm 4 mps 746 mmHg 59%
    14:00 +1°C° 0 mm 4 mps 746 mmHg 65%
    15:00 0°C° 0 mm 4 mps 746 mmHg 71%
    16:00 0°C° 0 mm 5 mps 746 mmHg 77%
    17:00 0°C° 0 mm 5 mps 745 mmHg 76%
    18:00 -1°C° 0 mm 6 mps 744 mmHg 74%
    19:00 -1°C° 0 mm 7 mps 743 mmHg 73%
    20:00 -1°C° 0.2 mm 7 mps 742 mmHg 76%
    21:00 0°C° 0.2 mm 7 mps 742 mmHg 79%
    22:00 0°C° 0.2 mm 7 mps 742 mmHg 82%
    23:00 0°C° 0.1 mm 8 mps 741 mmHg 81%

    19 January, Friday

    Time Temperature Precipitation Wind Pressure Humidity
    00:00 +1°C° 0.1 mm 8 mps 741 mmHg 80%
    01:00 +1°C° 0.1 mm 8 mps 741 mmHg 79%
    02:00 +1°C° 0 mm 8 mps 741 mmHg 80%
    03:00 +2°C° 0 mm 7 mps 741 mmHg 81%
    04:00 +2°C° 0 mm 6 mps 742 mmHg 82%
    05:00 +2°C° 0 mm 6 mps 742 mmHg 83%
    06:00 +1°C° 0 mm 6 mps 742 mmHg 84%
    07:00 +1°C° 0 mm 5 mps 742 mmHg 85%
    08:00 +1°C° 0.1 mm 5 mps 743 mmHg 85%
    09:00 +1°C° 0.1 mm 5 mps 743 mmHg 84%
    10:00 +2°C° 0.1 mm 5 mps 743 mmHg 84%
    11:00 +3°C° 0 mm 4 mps 744 mmHg 82%
    12:00 +3°C° 0 mm 4 mps 744 mmHg 81%
    13:00 +4°C° 0 mm 4 mps 744 mmHg 79%
    14:00 +3°C° 0.1 mm 3 mps 744 mmHg 82%
    15:00 +3°C° 0.1 mm 3 mps 744 mmHg 85%
    16:00 +4°C° 0.1 mm 2 mps 744 mmHg 88%
    17:00 +3°C° 0.1 mm 2 mps 745 mmHg 89%
    18:00 +2°C° 0.1 mm 3 mps 745 mmHg 91%
    19:00 +2°C° 0.1 mm 3 mps 745 mmHg 93%
    20:00 +3°C° 0.2 mm 2 mps 745 mmHg 93%
    21:00 +3°C° 0.2 mm 2 mps 745 mmHg 94%
    22:00 +3°C° 0.2 mm 2 mps 745 mmHg 95%
    23:00 +4°C° 0.1 mm 1 mps 745 mmHg 94%

    20 January, Saturday

    Time Temperature Precipitation Wind Pressure Humidity
    00:00 +3°C° 0.1 mm 1 mps 745 mmHg 94%
    01:00 +3°C° 0.1 mm 1 mps 745 mmHg 94%
    02:00 +3°C° 0.1 mm 1 mps 745 mmHg 94%
    03:00 +3°C° 0.1 mm 1 mps 745 mmHg 94%
    04:00 +2°C° 0.1 mm 2 mps 745 mmHg 95%
    05:00 +2°C° 0 mm 2 mps 745 mmHg 94%
    06:00 +2°C° 0 mm 2 mps 744 mmHg 94%
    07:00 +2°C° 0 mm 2 mps 744 mmHg 94%
    08:00 +2°C° 0.1 mm 2 mps 744 mmHg 93%
    09:00 +2°C° 0.1 mm 2 mps 744 mmHg 91%
    10:00 +1°C° 0.1 mm 3 mps 744 mmHg 89%
    11:00 +2°C° 0.2 mm 3 mps 744 mmHg 88%
    12:00 +2°C° 0.2 mm 3 mps 743 mmHg 87%
    13:00 +2°C° 0.2 mm 3 mps 743 mmHg 85%
    14:00 +2°C° 0.4 mm 3 mps 743 mmHg 86%
    15:00 +2°C° 0.4 mm 3 mps 743 mmHg 87%
    16:00 +1°C° 0.4 mm 3 mps 742 mmHg 87%
    17:00 +1°C° 0.6 mm 3 mps 742 mmHg 88%
    18:00 +1°C° 0.6 mm 3 mps 742 mmHg 88%
    19:00 0°C° 0.6 mm 4 mps 742 mmHg 89%
    20:00 0°C° 0.3 mm 4 mps 742 mmHg 89%
    21:00 0°C° 0.3 mm 4 mps 742 mmHg 90%
    22:00 0°C° 0.3 mm 4 mps 742 mmHg 90%
    23:00 -1°C° 0.5 mm 4 mps 741 mmHg 91%

    21 January, Sunday

    Time Temperature Precipitation Wind Pressure Humidity
    00:00 -1°C° 0.5 mm 4 mps 741 mmHg 91%
    01:00 -1°C° 0.5 mm 4 mps 741 mmHg 91%
    02:00 -1°C° 0.8 mm 5 mps 740 mmHg 92%
    03:00 -1°C° 0.8 mm 5 mps 740 mmHg 92%
    04:00 -2°C° 0.8 mm 6 mps 740 mmHg 93%
    05:00 -2°C° 0.7 mm 6 mps 739 mmHg 93%
    06:00 -2°C° 0.7 mm 6 mps 739 mmHg 92%
    07:00 -3°C° 0.7 mm 6 mps 738 mmHg 92%
    08:00 -3°C° 0.8 mm 6 mps 738 mmHg 92%
    09:00 -3°C° 0.8 mm 6 mps 738 mmHg 92%
    10:00 -3°C° 0.8 mm 6 mps 738 mmHg 92%
    11:00 -3°C° 0.8 mm 7 mps 738 mmHg 92%
    12:00 -3°C° 0.8 mm 7 mps 738 mmHg 91%
    13:00 -3°C° 0.8 mm 7 mps 738 mmHg 90%
    14:00 -3°C° 0.2 mm 7 mps 738 mmHg 89%
    15:00 -4°C° 0.2 mm 8 mps 739 mmHg 87%
    16:00 -4°C° 0.2 mm 8 mps 739 mmHg 85%
    17:00 -5°C° 0.2 mm 8 mps 740 mmHg 85%
    18:00 -5°C° 0.2 mm 8 mps 740 mmHg 85%
    19:00 -5°C° 0.2 mm 9 mps 740 mmHg 85%
    20:00 -5°C° 0.1 mm 9 mps 741 mmHg 84%
    21:00 -6°C° 0.1 mm 8 mps 741 mmHg 83%
    22:00 -6°C° 0.1 mm 8 mps 741 mmHg 81%
    23:00 -6°C° 0.1 mm 8 mps 742 mmHg 81%
    Show more